{"data":{"norad_id":62507,"intl_designator":"2025-003W","name":"STARLINK-32679","alt_names":[],"object_type":"PAYLOAD","status":"ACTIVE","operator":null,"country":"US","launch_date":"2025-01-06","launch_site_code":"AFETR","launch_vehicle":null,"mission":null,"orbit_class":"UNKNOWN","rcs_meters":null,"size_class":null,"mass_kg":null,"dimensions":null,"purposes":["comms"],"wikipedia_slug":null,"has_3d_model":false,"image_url":null,"decayed_at":null,"tle_current":{"epoch":"2026-05-24T21:49:07.718304Z","epoch_age_seconds":76855,"freshness":"FRESH","line1":"1 62507U 25003W   26144.90911711  .00015048  00000+0  55500-3 0  9991","line2":"2 62507  42.9980 218.8865 0001100 279.7498  80.3229 15.27593263 78327","mean_motion":15.27593263,"eccentricity":0.00011,"inclination_deg":42.998,"raan_deg":218.8865,"arg_perigee_deg":279.7498,"mean_anomaly_deg":80.3229,"bstar":0.000555,"rev_number":7832,"period_min":94.265930262878,"perigee_km":482.25465603162,"apogee_km":483.76410823569,"semimajor_km":6861.1463821337,"source":"CELESTRAK","updated_at":"2026-05-25T13:38:19.700625Z"}}}